| time (UTC) | temp F | wind direction | speed MPH | gust MPH | rain 1hr in | rain 24hr in | rain mn in | humidity % | barometer mb |
| 20260502195503 | 57 | 221 | 3.0 | 7.0 | 0.00 | 0.00 | 0.00 | 89 | 1012.0 |
| 20260502195004 | 58 | 212 | 2.0 | 3.0 | 0.00 | 0.00 | 0.00 | 88 | 1012.1 |
| 20260502194504 | 58 | 230 | 3.0 | 10.0 | 0.00 | 0.00 | 0.00 | 88 | 1012.0 |
| 20260502194003 | 58 | 204 | 1.0 | 3.0 | 0.00 | 0.00 | 0.00 | 88 | 1011.9 |
| 20260502193504 | 58 | 229 | 2.0 | 6.0 | 0.00 | 0.00 | 0.00 | 88 | 1012.0 |
| 20260502193004 | 58 | 203 | 2.0 | 7.0 | 0.00 | 0.00 | 0.00 | 87 | 1012.1 |
| 20260502192004 | 58 | 237 | 3.0 | 7.0 | 0.00 | 0.00 | 0.00 | 87 | 1012.0 |
| 20260502191504 | 59 | 211 | 3.0 | 6.0 | 0.00 | 0.00 | 0.00 | 87 | 1012.0 |
| 20260502191003 | 59 | 236 | 3.0 | 7.0 | 0.00 | 0.00 | 0.00 | 87 | 1012.0 |
| 20260502190503 | 59 | 262 | 2.0 | 8.0 | 0.00 | 0.00 | 0.00 | 86 | 1012.0 |
| 20260502190004 | 60 | 237 | 3.0 | 6.0 | 0.00 | 0.00 | 0.00 | 86 | 1011.9 |
| 20260502185504 | 60 | 205 | 2.0 | 5.0 | 0.00 | 0.00 | 0.00 | 86 | 1011.8 |
| 20260502185003 | 60 | 186 | 3.0 | 8.0 | 0.00 | 0.00 | 0.00 | 85 | 1011.8 |
| 20260502184004 | 60 | 233 | 2.0 | 8.0 | 0.00 | 0.00 | 0.00 | 84 | 1011.8 |
| 20260502183003 | 60 | 207 | 2.0 | 6.0 | 0.00 | 0.00 | 0.00 | 85 | 1012.0 |
| 20260502182503 | 61 | 236 | 2.0 | 7.0 | 0.00 | 0.00 | 0.00 | 84 | 1012.0 |
| 20260502182004 | 61 | 235 | 2.0 | 3.0 | 0.00 | 0.00 | 0.00 | 84 | 1012.1 |
| 20260502181504 | 61 | 234 | 1.0 | 5.0 | 0.00 | 0.00 | 0.00 | 84 | 1012.1 |
| 20260502181004 | 61 | 240 | 3.0 | 5.0 | 0.00 | 0.00 | 0.00 | 84 | 1012.2 |
| 20260502180504 | 61 | 243 | 2.0 | 8.0 | 0.00 | 0.00 | 0.00 | 83 | 1012.2 |
| 20260502170504 | 63 | 233 | 5.0 | 8.0 | 0.00 | 0.00 | 0.00 | 82 | 1012.4 |
| 20260502164004 | 64 | 248 | 4.0 | 9.0 | 0.00 | 0.00 | 0.00 | 80 | 1012.6 |
| 20260502163503 | 64 | 246 | 3.0 | 10.0 | 0.00 | 0.00 | 0.00 | 79 | 1012.5 |
| 20260502163003 | 64 | 246 | 6.0 | 13.0 | 0.00 | 0.00 | 0.00 | 79 | 1012.7 |
| 20260502162503 | 64 | 243 | 7.0 | 14.0 | 0.00 | 0.00 | 0.00 | 78 | 1012.7 |
| 20260502162004 | 65 | 250 | 6.0 | 12.0 | 0.00 | 0.00 | 0.00 | 78 | 1012.7 |
| 20260502161503 | 65 | 240 | 5.0 | 13.0 | 0.00 | 0.00 | 0.00 | 78 | 1012.6 |
| 20260502161004 | 65 | 252 | 5.0 | 12.0 | 0.00 | 0.00 | 0.00 | 77 | 1012.7 |
| 20260502152004 | 71 | 233 | 7.0 | 17.0 | 0.00 | 0.00 | 0.00 | 70 | 1012.7 |
| 20260502151504 | 71 | 248 | 10.0 | 16.0 | 0.00 | 0.00 | 0.00 | 69 | 1012.7 |
| 20260502151003 | 72 | 247 | 6.0 | 15.0 | 0.00 | 0.00 | 0.00 | 70 | 1012.7 |
| 20260502150504 | 72 | 241 | 6.0 | 14.0 | 0.00 | 0.00 | 0.00 | 69 | 1012.8 |
| 20260502130504 | 76 | 231 | 6.0 | 17.0 | 0.00 | 0.00 | 0.00 | 44 | 1013.2 |
| 20260502123504 | 76 | 218 | 6.0 | 20.0 | 0.00 | 0.00 | 0.00 | 45 | 1013.5 |
| 20260502123004 | 75 | 227 | 8.0 | 15.0 | 0.00 | 0.00 | 0.00 | 45 | 1013.5 |
| 20260502122504 | 75 | 229 | 9.0 | 16.0 | 0.00 | 0.00 | 0.00 | 43 | 1013.6 |
| 20260502122004 | 76 | 238 | 11.0 | 20.0 | 0.00 | 0.00 | 0.00 | 43 | 1013.7 |
| 20260502121503 | 76 | 243 | 7.0 | 14.0 | 0.00 | 0.00 | 0.00 | 44 | 1013.6 |
| 20260502121004 | 76 | 229 | 7.0 | 16.0 | 0.00 | 0.00 | 0.00 | 44 | 1013.8 |
| 20260502120504 | 75 | 219 | 6.0 | 17.0 | 0.00 | 0.00 | 0.00 | 44 | 1013.8 |
| 20260502115504 | 76 | 221 | 8.0 | 16.0 | 0.00 | 0.00 | 0.00 | 44 | 1013.9 |
| 20260502115003 | 75 | 202 | 9.0 | 18.0 | 0.00 | 0.00 | 0.00 | 45 | 1014.0 |
| 20260502114504 | 75 | 222 | 6.0 | 17.0 | 0.00 | 0.00 | 0.00 | 46 | 1014.0 |
| 20260502114004 | 75 | 249 | 8.0 | 18.0 | 0.00 | 0.00 | 0.00 | 46 | 1014.0 |
| 20260502113503 | 75 | 240 | 9.0 | 16.0 | 0.00 | 0.00 | 0.00 | 45 | 1014.0 |
| 20260502113004 | 75 | 224 | 9.0 | 16.0 | 0.00 | 0.00 | 0.00 | 45 | 1014.0 |
| 20260502112504 | 75 | 225 | 8.0 | 16.0 | 0.00 | 0.00 | 0.00 | 45 | 1014.1 |
| 20260502112003 | 75 | 222 | 6.0 | 20.0 | 0.00 | 0.00 | 0.00 | 46 | 1014.1 |
| 20260502111504 | 75 | 216 | 7.0 | 16.0 | 0.00 | 0.00 | 0.00 | 46 | 1014.2 |
| 20260502111004 | 75 | 219 | 6.0 | 16.0 | 0.00 | 0.00 | 0.00 | 47 | 1014.3 |
| 20260502110504 | 75 | 254 | 7.0 | 20.0 | 0.00 | 0.00 | 0.00 | 46 | 1014.3 |
| 20260502110004 | 75 | 221 | 8.0 | 16.0 | 0.00 | 0.00 | 0.00 | 46 | 1014.4 |
| 20260502105503 | 74 | 216 | 7.0 | 14.0 | 0.00 | 0.00 | 0.00 | 46 | 1014.3 |
| 20260502105003 | 74 | 229 | 6.0 | 13.0 | 0.00 | 0.00 | 0.00 | 47 | 1014.4 |
| 20260502104503 | 74 | 236 | 7.0 | 14.0 | 0.00 | 0.00 | 0.00 | 47 | 1014.4 |
| 20260502104004 | 74 | 256 | 4.0 | 12.0 | 0.00 | 0.00 | 0.00 | 49 | 1014.4 |
| 20260502103503 | 74 | 204 | 8.0 | 17.0 | 0.00 | 0.00 | 0.00 | 48 | 1014.5 |
| 20260502103004 | 74 | 233 | 6.0 | 13.0 | 0.00 | 0.00 | 0.00 | 49 | 1014.5 |
| 20260502102504 | 73 | 238 | 3.0 | 14.0 | 0.00 | 0.00 | 0.00 | 51 | 1014.6 |
| 20260502102003 | 73 | 205 | 6.0 | 16.0 | 0.00 | 0.00 | 0.00 | 50 | 1014.7 |
| 20260502101504 | 73 | 223 | 8.0 | 16.0 | 0.00 | 0.00 | 0.00 | 50 | 1014.8 |
| 20260502101004 | 73 | 215 | 6.0 | 13.0 | 0.00 | 0.00 | 0.00 | 51 | 1014.7 |
| 20260502100504 | 73 | 207 | 6.0 | 12.0 | 0.00 | 0.00 | 0.00 | 52 | 1014.8 |
| 20260502091504 | 71 | 224 | 6.0 | 14.0 | 0.00 | 0.00 | 0.00 | 56 | 1015.2 |
| 20260502091003 | 70 | 203 | 6.0 | 13.0 | 0.00 | 0.00 | 0.00 | 59 | 1015.3 |
| 20260502090504 | 70 | 208 | 6.0 | 10.0 | 0.00 | 0.00 | 0.00 | 59 | 1015.3 |
| 20260502071504 | 63 | 200 | 5.0 | 8.0 | 0.00 | 0.00 | 0.00 | 73 | 1016.0 |
| 20260502071003 | 62 | 229 | 3.0 | 8.0 | 0.00 | 0.00 | 0.00 | 74 | 1016.1 |
| 20260502065504 | 61 | 203 | 2.0 | 7.0 | 0.00 | 0.00 | 0.00 | 76 | 1016.1 |
| 20260502065004 | 61 | 198 | 2.0 | 7.0 | 0.00 | 0.00 | 0.00 | 76 | 1016.1 |
| 20260502064504 | 60 | 213 | 2.0 | 7.0 | 0.00 | 0.00 | 0.00 | 76 | 1016.1 |
| 20260502063504 | 60 | 194 | 2.0 | 7.0 | 0.00 | 0.00 | 0.00 | 76 | 1016.1 |
| 20260502062504 | 58 | 192 | 2.0 | 8.0 | 0.00 | 0.00 | 0.00 | 77 | 1016.2 |
| 20260502062004 | 58 | 194 | 4.0 | 8.0 | 0.00 | 0.00 | 0.00 | 77 | 1016.2 |
| 20260502060504 | 56 | 200 | 3.0 | 7.0 | 0.00 | 0.00 | 0.00 | 78 | 1016.4 |
| 20260502055003 | 55 | 198 | 3.0 | 10.0 | 0.00 | 0.00 | 0.00 | 78 | 1016.5 |
| 20260502053504 | 54 | 207 | 2.0 | 3.0 | 0.00 | 0.00 | 0.00 | 79 | 1016.5 |
| 20260502053004 | 54 | 212 | 3.0 | 8.0 | 0.00 | 0.00 | 0.00 | 79 | 1016.6 |
| 20260502052504 | 54 | 215 | 2.0 | 6.0 | 0.00 | 0.00 | 0.00 | 80 | 1016.6 |
| 20260502052003 | 53 | 203 | 3.0 | 7.0 | 0.00 | 0.00 | 0.00 | 80 | 1016.6 |
| 20260502051504 | 53 | 206 | 2.0 | 6.0 | 0.00 | 0.00 | 0.00 | 80 | 1016.6 |
| 20260502051004 | 53 | 234 | 2.0 | 8.0 | 0.00 | 0.00 | 0.00 | 81 | 1016.6 |
| 20260502050504 | 52 | 232 | 3.0 | 7.0 | 0.00 | 0.00 | 0.00 | 81 | 1016.6 |
| 20260502050004 | 52 | 201 | 3.0 | 8.0 | 0.00 | 0.00 | 0.00 | 81 | 1016.6 |
| 20260502045004 | 51 | 229 | 2.0 | 3.0 | 0.00 | 0.00 | 0.00 | 82 | 1016.7 |
| 20260502044504 | 51 | 199 | 2.0 | 6.0 | 0.00 | 0.00 | 0.00 | 82 | 1016.7 |
| 20260502044004 | 51 | 193 | 2.0 | 6.0 | 0.00 | 0.00 | 0.00 | 82 | 1016.8 |
| 20260502043503 | 51 | 251 | 3.0 | 7.0 | 0.00 | 0.00 | 0.00 | 82 | 1016.8 |
| 20260502043004 | 51 | 206 | 1.0 | 5.0 | 0.00 | 0.00 | 0.00 | 82 | 1016.8 |
| 20260502042503 | 51 | 269 | 1.0 | 6.0 | 0.00 | 0.00 | 0.00 | 82 | 1016.8 |
| 20260502042004 | 50 | 222 | 2.0 | 8.0 | 0.00 | 0.00 | 0.00 | 82 | 1016.9 |
| 20260502041504 | 50 | 245 | 2.0 | 3.0 | 0.00 | 0.00 | 0.00 | 82 | 1016.9 |
| 20260502040504 | 50 | 210 | 2.0 | 7.0 | 0.00 | 0.00 | 0.00 | 82 | 1016.9 |
| 20260502035503 | 50 | 228 | 2.0 | 9.0 | 0.00 | 0.00 | 0.00 | 82 | 1017.0 |
| 20260502034004 | 50 | 186 | 2.0 | 6.0 | 0.00 | 0.00 | 0.00 | 82 | 1017.2 |
| 20260502033504 | 50 | 216 | 2.0 | 5.0 | 0.00 | 0.00 | 0.00 | 82 | 1017.2 |
| 20260502033004 | 50 | 198 | 1.0 | 3.0 | 0.00 | 0.00 | 0.00 | 82 | 1017.4 |
| 20260502032503 | 50 | 191 | 2.0 | 7.0 | 0.00 | 0.00 | 0.00 | 82 | 1017.4 |
| 20260502032004 | 50 | 219 | 1.0 | 7.0 | 0.00 | 0.00 | 0.00 | 82 | 1017.5 |
| 20260502031003 | 50 | 200 | 2.0 | 5.0 | 0.00 | 0.00 | 0.00 | 82 | 1017.6 |
| 20260502030503 | 50 | 209 | 3.0 | 8.0 | 0.00 | 0.00 | 0.00 | 82 | 1017.7 |
| 20260502030004 | 50 | 184 | 2.0 | 7.0 | 0.00 | 0.00 | 0.00 | 82 | 1017.7 |
| 20260502025503 | 50 | 181 | 1.0 | 5.0 | 0.00 | 0.00 | 0.00 | 82 | 1017.8 |
| 20260502025003 | 50 | 185 | 3.0 | 6.0 | 0.00 | 0.00 | 0.00 | 82 | 1017.9 |
| 20260502024504 | 50 | 207 | 2.0 | 7.0 | 0.00 | 0.00 | 0.00 | 82 | 1018.0 |
| 20260502024004 | 50 | 225 | 1.0 | 7.0 | 0.00 | 0.00 | 0.00 | 82 | 1018.0 |
| 20260502023504 | 50 | 198 | 1.0 | 5.0 | 0.00 | 0.00 | 0.00 | 83 | 1018.1 |
| 20260502023003 | 49 | 218 | 2.0 | 5.0 | 0.00 | 0.00 | 0.00 | 83 | 1018.2 |
| 20260502022503 | 49 | 212 | 2.0 | 3.0 | 0.00 | 0.00 | 0.00 | 83 | 1018.2 |
| 20260502022004 | 49 | 222 | 1.0 | 3.0 | 0.00 | 0.00 | 0.00 | 83 | 1018.3 |
| 20260502021504 | 49 | 223 | 0.0 | 3.0 | 0.00 | 0.00 | 0.00 | 84 | 1018.4 |
| 20260502021004 | 49 | 225 | 1.0 | 3.0 | 0.00 | 0.00 | 0.00 | 84 | 1018.5 |
| 20260502020504 | 49 | 215 | 1.0 | 2.0 | 0.00 | 0.00 | 0.00 | 84 | 1018.5 |
| 20260502020004 | 49 | 216 | 1.0 | 2.0 | 0.00 | 0.00 | 0.00 | 85 | 1018.6 |
| 20260502015504 | 49 | 218 | 0.0 | 2.0 | 0.00 | 0.00 | 0.00 | 86 | 1018.7 |
| 20260502015004 | 48 | 219 | 2.0 | 3.0 | 0.00 | 0.00 | 0.00 | 86 | 1018.8 |
| 20260502014504 | 48 | 207 | 1.0 | 3.0 | 0.00 | 0.00 | 0.00 | 87 | 1018.8 |
| 20260502014004 | 48 | 205 | 0.0 | 1.0 | 0.00 | 0.00 | 0.00 | 87 | 1018.9 |
| 20260502013504 | 48 | 205 | 0.0 | 3.0 | 0.00 | 0.00 | 0.00 | 88 | 1018.9 |
| 20260502013003 | 48 | 177 | 0.0 | 3.0 | 0.00 | 0.00 | 0.00 | 88 | 1019.0 |
| 20260502012504 | 47 | 190 | 0.0 | 3.0 | 0.00 | 0.00 | 0.00 | 89 | 1019.1 |
| 20260502012004 | 47 | 198 | 0.0 | 3.0 | 0.00 | 0.00 | 0.00 | 90 | 1019.1 |
| 20260502011504 | 47 | 198 | 0.0 | 2.0 | 0.00 | 0.00 | 0.00 | 90 | 1019.2 |
| 20260502011004 | 46 | 198 | 0.0 | 2.0 | 0.00 | 0.00 | 0.00 | 91 | 1019.3 |
| 20260502010504 | 46 | 198 | 0.0 | 1.0 | 0.00 | 0.00 | 0.00 | 92 | 1019.4 |
| 20260502010004 | 46 | 198 | 0.0 | 2.0 | 0.00 | 0.00 | 0.00 | 92 | 1019.5 |
| 20260502005503 | 45 | 201 | 1.0 | 3.0 | 0.00 | 0.00 | 0.00 | 92 | 1019.6 |
| 20260502005004 | 44 | 236 | 0.0 | 0.0 | 0.00 | 0.00 | 0.00 | 92 | 1019.6 |
| 20260502004504 | 44 | 236 | 0.0 | 0.0 | 0.00 | 0.00 | 0.00 | 92 | 1019.7 |
| 20260502002503 | 44 | 236 | 0.0 | 0.0 | 0.00 | 0.00 | 0.00 | 91 | 1020.0 |
| 20260502002003 | 44 | 236 | 0.0 | 0.0 | 0.00 | 0.00 | 0.00 | 91 | 1020.1 |
| 20260502001503 | 44 | 236 | 0.0 | 0.0 | 0.00 | 0.00 | 0.00 | 91 | 1020.1 |
| 20260502001004 | 44 | 236 | 0.0 | 0.0 | 0.00 | 0.00 | 0.00 | 90 | 1020.1 |
| 20260502000504 | 44 | 236 | 0.0 | 0.0 | 0.00 | 0.00 | 0.00 | 90 | 1020.2 |
| 20260502000004 | 44 | 236 | 0.0 | 0.0 | 0.00 | 0.00 | 0.00 | 90 | 1020.3 |
| 20260501235504 | 44 | 236 | 0.0 | 0.0 | 0.00 | 0.00 | 0.00 | 90 | 1020.3 |
| 20260501235004 | 44 | 236 | 0.0 | 0.0 | 0.00 | 0.00 | 0.00 | 90 | 1020.4 |
| 20260501234503 | 44 | 236 | 0.0 | 0.0 | 0.00 | 0.00 | 0.00 | 90 | 1020.4 |
| 20260501234003 | 44 | 236 | 0.0 | 0.0 | 0.00 | 0.00 | 0.00 | 90 | 1020.5 |
| 20260501233504 | 45 | 236 | 0.0 | 0.0 | 0.00 | 0.00 | 0.00 | 90 | 1020.6 |
| 20260501232504 | 45 | 236 | 0.0 | 0.0 | 0.00 | 0.00 | 0.00 | 90 | 1020.8 |
| 20260501232004 | 45 | 236 | 0.0 | 0.0 | 0.00 | 0.00 | 0.00 | 90 | 1020.8 |
| 20260501231503 | 45 | 236 | 0.0 | 0.0 | 0.00 | 0.00 | 0.00 | 90 | 1020.9 |
| 20260501230504 | 45 | 236 | 0.0 | 0.0 | 0.00 | 0.00 | 0.00 | 90 | 1021.1 |
| 20260501230004 | 45 | 236 | 0.0 | 0.0 | 0.00 | 0.00 | 0.00 | 90 | 1021.1 |
| 20260501225504 | 45 | 236 | 0.0 | 0.0 | 0.00 | 0.00 | 0.00 | 90 | 1021.2 |
| 20260501224504 | 45 | 236 | 0.0 | 0.0 | 0.00 | 0.00 | 0.00 | 89 | 1021.3 |
| 20260501224004 | 45 | 236 | 0.0 | 0.0 | 0.00 | 0.00 | 0.00 | 89 | 1021.3 |
| 20260501223004 | 46 | 236 | 0.0 | 0.0 | 0.00 | 0.00 | 0.00 | 88 | 1021.5 |
| 20260501222503 | 46 | 236 | 0.0 | 0.0 | 0.00 | 0.00 | 0.00 | 88 | 1021.6 |
| 20260501222004 | 46 | 236 | 0.0 | 0.0 | 0.00 | 0.00 | 0.00 | 87 | 1021.6 |
| 20260501221504 | 46 | 236 | 0.0 | 0.0 | 0.00 | 0.00 | 0.00 | 87 | 1021.7 |
| 20260501221004 | 46 | 236 | 0.0 | 0.0 | 0.00 | 0.00 | 0.00 | 87 | 1021.8 |
| 20260501220504 | 47 | 236 | 0.0 | 0.0 | 0.00 | 0.00 | 0.00 | 86 | 1021.8 |
| 20260501220004 | 47 | 236 | 0.0 | 0.0 | 0.00 | 0.00 | 0.00 | 86 | 1021.9 |
| 20260501215504 | 47 | 236 | 0.0 | 0.0 | 0.00 | 0.00 | 0.00 | 86 | 1021.9 |
| 20260501215004 | 47 | 236 | 0.0 | 0.0 | 0.00 | 0.00 | 0.00 | 86 | 1021.9 |
| 20260501214503 | 48 | 236 | 0.0 | 0.0 | 0.00 | 0.00 | 0.00 | 86 | 1021.9 |
| 20260501214003 | 48 | 236 | 0.0 | 0.0 | 0.00 | 0.00 | 0.00 | 86 | 1022.0 |
| 20260501213003 | 48 | 236 | 0.0 | 0.0 | 0.00 | 0.00 | 0.00 | 85 | 1022.0 |
| 20260501212504 | 49 | 236 | 0.0 | 0.0 | 0.00 | 0.00 | 0.00 | 85 | 1022.1 |
| 20260501212004 | 49 | 236 | 0.0 | 0.0 | 0.00 | 0.00 | 0.00 | 84 | 1022.1 |
| 20260501210504 | 49 | 236 | 0.0 | 0.0 | 0.00 | 0.00 | 0.00 | 83 | 1022.3 |
| 20260501210004 | 50 | 236 | 0.0 | 0.0 | 0.00 | 0.00 | 0.00 | 83 | 1022.3 |
| 20260501205504 | 50 | 236 | 0.0 | 0.0 | 0.00 | 0.00 | 0.00 | 83 | 1022.4 |
| 20260501205004 | 50 | 236 | 0.0 | 0.0 | 0.00 | 0.00 | 0.00 | 83 | 1022.5 |
| 20260501204503 | 50 | 236 | 0.0 | 0.0 | 0.00 | 0.00 | 0.00 | 83 | 1022.5 |
| 20260501203504 | 51 | 236 | 0.0 | 0.0 | 0.00 | 0.00 | 0.00 | 82 | 1022.6 |
| 20260501203004 | 52 | 236 | 0.0 | 0.0 | 0.00 | 0.00 | 0.00 | 82 | 1022.6 |
| 20260501202504 | 52 | 236 | 0.0 | 0.0 | 0.00 | 0.00 | 0.00 | 82 | 1022.7 |
| 20260501201504 | 53 | 236 | 0.0 | 0.0 | 0.00 | 0.00 | 0.00 | 81 | 1022.7 |
| 20260501201004 | 53 | 236 | 0.0 | 0.0 | 0.00 | 0.00 | 0.00 | 80 | 1022.8 |
| 20260501200504 | 54 | 236 | 0.0 | 0.0 | 0.00 | 0.00 | 0.00 | 79 | 1022.8 |
| 20260501200003 | 54 | 236 | 0.0 | 0.0 | 0.00 | 0.00 | 0.00 | 79 | 1022.8 |